K5KVN-2 Weather Reports


time (UTC)temp
C
wind
direction
speed
KPH
gust
KPH
rain 1hr
cm
rain 24hr
cm
rain mn
cm
humidity
%
barometer
mb
20260503223413 25 168 16.1 25.7 0.00 0.00 0.00 44 1013.3
20260503222413 25 188 17.7 30.6 0.00 0.00 0.00 42 1013.5
20260503221412 25 187 11.3 24.1 0.00 0.00 0.00 41 1013.6
20260503220852 25 227 8.0 17.7 0.00 0.00 0.00 40 1013.7
20260503215407 25 221 14.5 27.4 0.00 0.00 0.00 38 1013.8
20260503214407 25 191 16.1 35.4 0.00 0.00 0.00 41 1013.9
20260503213403 25 177 11.3 29.0 0.00 0.00 0.00 41 1014.0
20260503212406 25 200 14.5 29.0 0.00 0.00 0.00 44 1014.2
20260503211403 25 188 16.1 29.0 0.00 0.00 0.00 42 1014.3
20260503210404 25 221 12.9 25.7 0.00 0.00 0.00 43 1014.5
20260503205403 25 165 14.5 29.0 0.00 0.00 0.00 44 1014.8
20260503204401 25 180 9.7 17.7 0.00 0.00 0.00 44 1015.1
20260503203402 25 217 12.9 25.7 0.00 0.00 0.00 46 1015.1
20260503202401 25 184 14.5 27.4 0.00 0.00 0.00 47 1015.3
20260503201845 25 178 11.3 25.7 0.00 0.00 0.00 44 1015.4
20260503200358 25 205 12.9 25.7 0.00 0.00 0.00 44 1015.7
20260503195358 25 177 12.9 27.4 0.00 0.00 0.00 43 1015.7
20260503194837 25 174 14.5 25.7 0.00 0.00 0.00 49 1016.1
20260503193400 25 195 11.3 24.1 0.00 0.00 0.00 46 1016.3
20260503192359 24 188 9.7 20.9 0.00 0.00 0.00 46 1016.4
20260503191358 24 205 14.5 29.0 0.00 0.00 0.00 46 1016.5
20260503190358 23 192 14.5 27.4 0.00 0.00 0.00 47 1016.6
20260503185832 23 242 14.5 24.1 0.00 0.00 0.00 48 1016.7
20260503184357 23 184 9.7 20.9 0.00 0.00 0.00 46 1016.6
20260503183354 23 240 12.9 25.7 0.00 0.00 0.00 47 1016.7
20260503182353 23 210 12.9 27.4 0.00 0.00 0.00 48 1016.9
20260503181351 23 197 17.7 30.6 0.00 0.00 0.00 47 1017.0
20260503180352 23 204 16.1 27.4 0.00 0.00 0.00 44 1017.1
20260503175843 22 171 17.7 29.0 0.00 0.00 0.00 45 1017.3
20260503174353 22 182 14.5 25.7 0.00 0.00 0.00 46 1017.4
20260503173347 22 189 16.1 29.0 0.00 0.00 0.00 45 1017.5
20260503172345 21 184 20.9 35.4 0.00 0.00 0.00 46 1017.6
20260503171346 22 168 16.1 33.8 0.00 0.00 0.00 45 1017.8
20260503170345 21 187 17.7 30.6 0.00 0.00 0.00 47 1018.0
20260503150340 18 166 17.7 27.4 0.00 0.00 0.00 48 1019.3
20260503131336 11 128 1.6 4.8 0.00 0.00 0.00 66 1019.8
20260503130336 10 126 0.0 4.8 0.00 0.00 0.00 67 1019.8
20260503110321 5 134 0.0 0.0 0.00 0.00 0.00 88 1019.0
20260503090312 6 94 0.0 1.6 0.00 0.00 0.00 85 1019.5
20260503081310 6 108 0.0 0.0 0.00 0.00 0.00 87 1019.9
20260503080312 5 108 0.0 0.0 0.00 0.00 0.00 88 1019.9
20260503072804 6 108 0.0 0.0 0.00 0.00 0.00 86 1020.2
20260503071307 6 108 0.0 1.6 0.00 0.00 0.00 84 1020.2
20260503070307 6 108 0.0 0.0 0.00 0.00 0.00 83 1020.2
20260503060304 7 103 0.0 1.6 0.00 0.00 0.00 84 1020.7
20260503054740 7 198 1.6 4.8 0.00 0.00 0.00 82 1020.7
20260503053259 7 36 0.0 1.6 0.00 0.00 0.00 83 1020.7
20260503052300 7 340 0.0 0.0 0.00 0.00 0.00 83 1020.7
20260503051300 7 325 0.0 1.6 0.00 0.00 0.00 83 1020.7
20260503050259 7 296 0.0 0.0 0.00 0.00 0.00 80 1020.7
20260503045301 7 296 0.0 0.0 0.00 0.00 0.00 79 1020.5
20260503044748 7 296 0.0 0.0 0.00 0.00 0.00 77 1020.5
20260503043300 7 296 0.0 0.0 0.00 0.00 0.00 75 1020.6
20260503042740 8 296 0.0 0.0 0.00 0.00 0.00 75 1020.6
20260503041258 8 296 0.0 0.0 0.00 0.00 0.00 74 1020.6
20260503040738 8 296 0.0 0.0 0.00 0.00 0.00 73 1020.5
20260503035254 8 296 0.0 0.0 0.00 0.00 0.00 74 1020.5
20260503034254 8 296 0.0 0.0 0.00 0.00 0.00 72 1020.6
20260503033254 9 296 0.0 0.0 0.00 0.00 0.00 72 1020.5
20260503032252 9 296 0.0 0.0 0.00 0.00 0.00 68 1020.5
20260503031254 10 296 0.0 0.0 0.00 0.00 0.00 67 1020.4
20260503030255 10 296 0.0 0.0 0.00 0.00 0.00 64 1020.3
20260503025251 11 296 0.0 0.0 0.00 0.00 0.00 61 1020.3
20260503024249 12 296 1.6 3.2 0.00 0.00 0.00 58 1020.2
20260503023249 12 306 1.6 4.8 0.00 0.00 0.00 52 1020.1
20260503022250 12 304 0.0 0.0 0.00 0.00 0.00 57 1020.1
20260503021248 12 298 0.0 0.0 0.00 0.00 0.00 51 1020.0
20260503020728 12 299 0.0 0.0 0.00 0.00 0.00 51 1020.0
20260503015248 12 294 0.0 1.6 0.00 0.00 0.00 51 1020.0
20260503014248 13 288 0.0 0.0 0.00 0.00 0.00 52 1019.8
20260503013248 13 288 1.6 3.2 0.00 0.00 0.00 50 1019.7
20260503012246 13 298 1.6 3.2 0.00 0.00 0.00 51 1019.7
20260503011246 13 280 3.2 4.8 0.00 0.00 0.00 50 1019.5
20260503010244 14 281 3.2 6.4 0.00 0.00 0.00 49 1019.4
20260503005244 15 282 3.2 6.4 0.00 0.00 0.00 46 1019.4
20260503004246 15 293 3.2 6.4 0.00 0.00 0.00 44 1019.4
20260503003245 16 298 4.8 9.7 0.00 0.00 0.00 42 1019.4
20260503002244 16 304 4.8 12.9 0.00 0.00 0.00 40 1019.4
20260503001717 16 314 4.8 11.3 0.00 0.00 0.00 40 1019.5
20260503000237 16 280 6.4 12.9 0.00 0.00 0.00 41 1019.5
20260502235237 16 277 6.4 12.9 0.00 0.00 0.00 41 1019.5
20260502234237 16 329 8.0 14.5 0.00 0.00 0.00 41 1019.5
20260502233238 17 319 9.7 16.1 0.00 0.00 0.00 39 1019.5
20260502232235 17 309 9.7 16.1 0.00 0.00 0.00 40 1019.6
20260502231232 17 320 9.7 17.7 0.00 0.00 0.00 39 1019.5
20260502230231 17 306 9.7 17.7 0.00 0.00 0.00 38 1019.5
20260502225717 17 299 6.4 14.5 0.00 0.00 0.00 42 1019.4
20260502224229 17 336 9.7 17.7 0.00 0.00 0.00 39 1019.4